Home   Weather   Leimen   Past weeks

Flag for Germany Past Weather in Leimen, Baden-Württemberg, Germany — Yesterday and Last 2 Weeks

Now
23 °F

Passing clouds.


Feels Like: 18 °F
Forecast: 13 / 26 °F
Wind: 3 mph from Northeast

Location: Frankfurt-M-Flughafen Airport

Current Time: Jan 21, 2017 at 5:51:08 am

Latest Report: Jan 21, 2017 at 5:20 am


Visibility: N/A

Pressure: 30.45 "Hg

Humidity: 86%

Dew Point: 19 °F

Location of LeimenLocation

Past Weather in Leimen — Graph

°F

Leimen Temperature Yesterday

Maximum temperature yesterday: 41 °F (at 2:50 pm)
Minimum temperature yesterday: 19 °F (at 2:50 am)
Average temperature yesterday: 28 °F

High & Low Weather Summary for the Past Weeks

 TemperatureHumidityPressure
High43 °F (Jan 12, 12:50 pm)100% (Jan 7, 10:20 pm)30.77 "Hg (Jan 7, 10:20 pm)
Low12 °F (Jan 7, 1:50 am)28% (Jan 20, 3:20 pm)29.15 "Hg (Jan 13, 12:50 am)
Average30 °F79%30.23 "Hg
* Reported Jan 6 4:20 am — Jan 21 4:50 am, Leimen, Weather by CustomWeather, © 2017

Note: Actual official high and low records may vary slightly from our data, if they occured in-between our weather recording intervals... More about our weather records

Advertising

Leimen Weather History for the Previous 24 Hours

Scroll right to see more
 ConditionsComfort  
Time TempWeatherWind HumidityBarometerVisibility
4:50 am
Sat, Jan 21
23 °FClear.7 mph86%30.45 "Hg10 mi
4:20 am23 °FClear.8 mph80%30.45 "Hg10 mi
3:50 am23 °FClear.7 mph86%30.45 "Hg10 mi
3:20 am25 °FClear.5 mph80%30.45 "Hg10 mi
2:50 am25 °FClear.7 mph80%30.45 "Hg10 mi
2:20 am23 °FClear.7 mph86%30.45 "Hg10 mi
1:50 am23 °FClear.7 mph80%30.45 "Hg10 mi
1:20 am25 °FClear.6 mph80%30.45 "Hg10 mi
12:50 am27 °FClear.9 mph74%30.45 "Hg10 mi
12:20 am23 °FClear.10 mph86%30.45 "Hg10 mi
11:50 pm
Fri, Jan 20
25 °FClear.9 mph74%30.48 "Hg10 mi
11:20 pm25 °FClear.6 mph80%30.48 "Hg10 mi
10:50 pm30 °FClear.7 mph69%30.48 "Hg10 mi
10:20 pm28 °FClear.7 mph69%30.48 "Hg10 mi
9:50 pm28 °FClear.7 mph69%30.48 "Hg10 mi
9:20 pm28 °FClear.6 mph69%30.48 "Hg10 mi
8:50 pm32 °FPassing clouds.6 mph60%30.48 "HgN/A
8:20 pm28 °FClear.2 mph69%30.48 "Hg10 mi
7:50 pm30 °FPassing clouds.3 mph64%30.48 "HgN/A
7:20 pm28 °FPassing clouds.3 mph64%30.48 "HgN/A
6:50 pm30 °FClear.2 mph59%30.48 "Hg10 mi
6:20 pm30 °FClear.1 mph55%30.48 "Hg10 mi
5:50 pm30 °FClear.2 mph55%30.48 "Hg10 mi
5:20 pm32 °FClear.2 mph51%30.48 "Hg10 mi
4:50 pm36 °FSunny.6 mph44%30.48 "Hg10 mi
4:20 pm39 °FSunny.6 mph36%30.48 "Hg10 mi
3:50 pm41 °FSunny.8 mph31%30.48 "Hg10 mi
3:20 pm41 °FSunny.7 mph28%30.48 "Hg10 mi
2:50 pm41 °FPassing clouds.3 mph31%30.48 "HgN/A
2:20 pm39 °FPassing clouds.7 mph30%30.48 "HgN/A
1:50 pm39 °FSunny.10 mph33%30.48 "Hg10 mi
1:20 pm37 °FScattered clouds.9 mph33%30.51 "HgN/A
12:50 pm37 °FSunny.9 mph35%30.51 "Hg10 mi
12:20 pm36 °FSunny.7 mph38%30.54 "Hg10 mi
11:50 am36 °FSunny.8 mph38%30.54 "Hg10 mi
11:20 am32 °FSunny.8 mph47%30.54 "Hg10 mi
10:50 am30 °FSunny.8 mph55%30.54 "Hg10 mi
10:20 am28 °FSunny.7 mph59%30.54 "Hg10 mi
9:50 am25 °FSunny.7 mph63%30.57 "Hg10 mi
9:20 am23 °FSunny.6 mph68%30.54 "Hg10 mi
8:50 am21 °FSunny.6 mph68%30.54 "Hg10 mi
8:20 am19 °FSunny.7 mph73%30.54 "Hg10 mi
7:50 am19 °FClear.8 mph73%30.54 "Hg10 mi
7:20 am19 °FClear.5 mph68%30.54 "Hg10 mi
6:50 am21 °FClear.7 mph68%30.54 "Hg10 mi
6:20 am19 °FClear.8 mph73%30.54 "Hg10 mi
5:50 am19 °FClear.7 mph73%30.54 "Hg10 mi
5:20 am19 °FClear.7 mph73%30.54 "Hg10 mi
Weather by CustomWeather, © 2017

See weather overviewHow to use our weather pages